Terug naar catalogus

STARLINK-3508

ActiefCommunicatieVLEO
NORAD 51862·PAYLOAD·🇺🇸 United States

Gelanceerd Mar 3, 2022 vanaf Cape Canaveral Space Force Station

Loading…

Volgende Passages (komende 24 uur)

TLE

VersSource: CelesTrak SupGP

Epoch: Sep 15, 2026, 02:05 UTC

1 51862C 22022L   26258.08729167 -.00026812  00000+0 -79215-3 0  2588
2 51862  53.1578 228.6701 0001349  95.3856  47.8881 15.34403959    12

Volg STARLINK-3508 in realtime met AllMySat

Download on the App Store